Lakeville, MN

6:29 AM CDT on May 25, 2018 (GMT -0500)
Airlake

Weather History for KLVN - May, 2013

Change the Weather History Date:

Tuesday, May 7, 2013

  Actual Average Record
Temperature  
Mean Temperature 60 °F -  
Max Temperature 75 °F 67 °F 91 °F (1963)
Min Temperature 46 °F 44 °F 29 °F (1989)
Degree Days  
Heating Degree Days 4    
Growing Degree Days 10 (Base 50)    
Moisture  
Dew Point 47 °F    
Average Humidity 60    
Maximum Humidity 100    
Minimum Humidity 31    
Precipitation  
Precipitation 0.00 in - - ()
Sea Level Pressure  
Sea Level Pressure 30.02 in    
Wind  
Wind Speed 2 mph (SSW)    
Max Wind Speed 8 mph    
Max Gust Speed -    
Visibility 9 miles    
Events      
Averages and records for this station are not official NWS values.
T = Trace of Precipitation, MM = Missing Value Source: NWS Daily Summary

Daily Weather History Graph

Daily Weather History Graph

Search for Another Location

Airport or City:

Astronomy

May. 07, 2013 Rise Set
Actual Time 5:54 AM CDT 8:25 PM CDT
Civil Twilight 5:21 AM CDT 8:58 PM CDT
Nautical Twilight 4:40 AM CDT 9:39 PM CDT
Astronomical Twilight 3:53 AM CDT 10:26 PM CDT
Moon 4:34 AM CDT (5/7) 6:21 PM CDT (5/7)
Length of Visible Light 15h 36m
Length of Day
14h 30m
Waning Crescent, 5% of the Moon is Illuminated
May 7
Waning Crescent
May 9
New
May 17
First Quarter
May 24
Full
May 31
Last Quarter

Hourly Weather History & Observations

Time (CDT) Temp. Dew Point Humidity Pressure Visibility Wind Dir Wind Speed Gust Speed Precip Events Conditions
12:01 AM 53.6 °F 48.2 °F 82% 30.04 in 10.0 mi WSW 4.6 mph - N/A   Clear
12:21 AM 55.4 °F 48.2 °F 77% 30.04 in 10.0 mi SW 3.5 mph - N/A   Clear
12:41 AM 55.4 °F 48.2 °F 77% 30.04 in 10.0 mi Calm Calm - N/A   Clear
1:02 AM 55.4 °F 48.2 °F 77% 30.04 in 10.0 mi West 3.5 mph - N/A   Clear
1:21 AM 55.4 °F 48.2 °F 77% 30.04 in 10.0 mi West 3.5 mph - N/A   Clear
1:41 AM 55.4 °F 48.2 °F 77% 30.04 in 10.0 mi West 3.5 mph - N/A   Clear
2:02 AM 53.6 °F 48.2 °F 82% 30.04 in 10.0 mi Calm Calm - N/A   Clear
2:21 AM 53.6 °F 48.2 °F 82% 30.04 in 10.0 mi Calm Calm - N/A   Clear
2:41 AM 55.4 °F 48.2 °F 77% 30.04 in 10.0 mi WSW 3.5 mph - N/A   Clear
3:02 AM 51.8 °F 46.4 °F 82% 30.04 in 10.0 mi Calm Calm - N/A   Clear
3:21 AM 51.8 °F 46.4 °F 82% 30.04 in 10.0 mi Calm Calm - N/A   Clear
3:42 AM 50.0 °F 46.4 °F 87% 30.04 in 10.0 mi Calm Calm - N/A   Clear
4:01 AM 50.0 °F 46.4 °F 87% 30.04 in 10.0 mi Calm Calm - N/A   Clear
4:21 AM 48.2 °F 46.4 °F 93% 30.04 in 10.0 mi Calm Calm - N/A   Clear
5:01 AM 48.2 °F 44.6 °F 87% 30.05 in 7.0 mi Calm Calm - N/A   Clear
5:21 AM 48.2 °F 46.4 °F 93% 30.05 in 7.0 mi Calm Calm - N/A   Clear
5:42 AM 48.2 °F 46.4 °F 93% 30.05 in 7.0 mi Calm Calm - N/A   Clear
6:01 AM 48.2 °F 46.4 °F 93% 30.05 in 7.0 mi Calm Calm - N/A   Clear
6:21 AM 48.2 °F 46.4 °F 93% 30.05 in 7.0 mi Calm Calm - N/A   Clear
6:42 AM 46.4 °F 44.6 °F 93% 30.06 in 5.0 mi Calm Calm - N/A   Clear
7:01 AM 46.4 °F 46.4 °F 100% 30.07 in 5.0 mi Calm Calm - N/A   Clear
7:22 AM 51.8 °F 48.2 °F 88% 30.07 in 5.0 mi Calm Calm - N/A   Clear
7:41 AM 53.6 °F 50.0 °F 88% 30.07 in 7.0 mi Calm Calm - N/A   Clear
8:01 AM 55.4 °F 50.0 °F 82% 30.07 in 7.0 mi Calm Calm - N/A   Clear
8:22 AM 59.0 °F 51.8 °F 77% 30.07 in 7.0 mi Calm Calm - N/A   Scattered Clouds
8:41 AM 59.0 °F 50.0 °F 72% 30.07 in 10.0 mi Calm Calm - N/A   Clear
9:01 AM 62.6 °F 51.8 °F 68% 30.07 in 10.0 mi Calm Calm - N/A   Clear
9:22 AM 64.4 °F 50.0 °F 59% 30.07 in 10.0 mi SSE 4.6 mph - N/A   Clear
9:41 AM 66.2 °F 51.8 °F 60% 30.06 in 10.0 mi SE 3.5 mph - N/A   Clear
10:02 AM 68.0 °F 50.0 °F 52% 30.06 in 10.0 mi South 4.6 mph - N/A   Clear
10:21 AM 69.8 °F 48.2 °F 46% 30.06 in 10.0 mi SSW 4.6 mph - N/A   Clear
10:41 AM 69.8 °F 48.2 °F 46% 30.06 in 10.0 mi SW 3.5 mph - N/A   Clear
11:02 AM 71.6 °F 48.2 °F 43% 30.05 in 10.0 mi Calm Calm - N/A   Clear
11:21 AM 71.6 °F 44.6 °F 38% 30.05 in 10.0 mi East 3.5 mph - N/A   Clear
11:41 AM 71.6 °F 44.6 °F 38% 30.04 in 10.0 mi Calm Calm - N/A   Clear
12:02 PM 71.6 °F 44.6 °F 38% 30.04 in 10.0 mi SSW 5.8 mph - N/A   Scattered Clouds
12:21 PM 73.4 °F 44.6 °F 36% 30.04 in 10.0 mi ESE 5.8 mph - N/A   Scattered Clouds
12:41 PM 73.4 °F 46.4 °F 38% 30.03 in 10.0 mi South 5.8 mph - N/A   Scattered Clouds
1:01 PM 71.6 °F 44.6 °F 38% 30.03 in 10.0 mi Calm Calm - N/A   Clear
1:21 PM 71.6 °F 44.6 °F 38% 30.03 in 10.0 mi SSW 3.5 mph - N/A   Scattered Clouds
1:41 PM 73.4 °F 42.8 °F 33% 30.02 in 10.0 mi South 8.1 mph - N/A   Scattered Clouds
2:01 PM 71.6 °F 42.8 °F 35% 30.02 in 10.0 mi Calm Calm - N/A   Scattered Clouds
2:21 PM 75.2 °F 42.8 °F 31% 30.01 in 10.0 mi SW 6.9 mph - N/A   Scattered Clouds
2:42 PM 75.2 °F 42.8 °F 31% 30.01 in 10.0 mi WSW 6.9 mph - N/A   Clear
3:01 PM 75.2 °F 42.8 °F 31% 30.00 in 10.0 mi South 3.5 mph - N/A   Clear
3:21 PM 75.2 °F 42.8 °F 31% 30.00 in 10.0 mi SSW 8.1 mph - N/A   Clear
3:41 PM 75.2 °F 44.6 °F 34% 29.99 in 10.0 mi WSW 6.9 mph - N/A   Clear
4:01 PM 75.2 °F 42.8 °F 31% 29.99 in 10.0 mi South 5.8 mph - N/A   Clear
4:22 PM 73.4 °F 42.8 °F 33% 29.98 in 10.0 mi SSW 4.6 mph - N/A   Clear
4:41 PM 73.4 °F 44.6 °F 36% 29.98 in 10.0 mi SW 3.5 mph - N/A   Clear
5:01 PM 73.4 °F 44.6 °F 36% 29.98 in 10.0 mi WSW 5.8 mph - N/A   Clear
5:22 PM 71.6 °F 44.6 °F 38% 29.98 in 10.0 mi WSW 4.6 mph - N/A   Clear
5:41 PM 73.4 °F 44.6 °F 36% 29.98 in 10.0 mi WSW 4.6 mph - N/A   Clear
6:01 PM 73.4 °F 46.4 °F 38% 29.98 in 10.0 mi SSW 4.6 mph - N/A   Scattered Clouds
6:22 PM 71.6 °F 46.4 °F 41% 29.98 in 10.0 mi SSW 3.5 mph - N/A   Scattered Clouds
6:41 PM 71.6 °F 46.4 °F 41% 29.97 in 10.0 mi Calm Calm - N/A   Clear
7:01 PM 71.6 °F 46.4 °F 41% 29.97 in 10.0 mi SSW 3.5 mph - N/A   Scattered Clouds
7:22 PM 69.8 °F 48.2 °F 46% 29.97 in 10.0 mi Calm Calm - N/A   Clear
7:41 PM 68.0 °F 48.2 °F 49% 29.97 in 4.0 mi Calm Calm - N/A   Haze
8:01 PM 68.0 °F 46.4 °F 46% 29.97 in 10.0 mi Calm Calm - N/A   Clear
8:22 PM 66.2 °F 46.4 °F 49% 29.97 in 10.0 mi Calm Calm - N/A   Clear
8:41 PM 64.4 °F 48.2 °F 56% 29.97 in 10.0 mi SE 3.5 mph - N/A   Clear
9:01 PM 64.4 °F 50.0 °F 59% 29.98 in 10.0 mi SSE 3.5 mph - N/A   Clear
9:22 PM 62.6 °F 50.0 °F 63% 29.98 in 10.0 mi SSE 3.5 mph - N/A   Clear
9:41 PM 62.6 °F 48.2 °F 59% 29.98 in 10.0 mi SSE 3.5 mph - N/A   Clear
10:02 PM 62.6 °F 48.2 °F 59% 29.98 in 10.0 mi SSE 3.5 mph - N/A   Clear
10:21 PM 62.6 °F 48.2 °F 59% 29.98 in 10.0 mi Calm Calm - N/A   Clear
10:41 PM 60.8 °F 48.2 °F 63% 29.98 in 10.0 mi Calm Calm - N/A   Clear
11:02 PM 55.4 °F 48.2 °F 77% 29.98 in 10.0 mi Calm Calm - N/A   Clear
11:21 PM 55.4 °F 48.2 °F 77% 29.98 in 10.0 mi Calm Calm - N/A   Clear
11:41 PM 53.6 °F 48.2 °F 82% 29.98 in 10.0 mi Calm Calm - N/A   Clear